Regional Weather Roundup
Issued by NWS Upton, NY

Current Version | Previous Version | Graphics & Text | Print | Product List | Glossary Off
Versions: 1 2 3 4 5 6 7 8 9 10 11 12 13 14 15 16 17 18 19 20 21 22 23 24 25 26 27 28 29 30 31 32 33 34 35 36 37 38 39 40 41 42 43 44 45 46 47 48 49 50

000
ASUS41 KOKX 291908
RWROKX

REGIONAL WEATHER ROUNDUP
NATIONAL WEATHER SERVICE NEW YORK NY
300 PM EDT MON JUN 29 2015

NOTE: "FAIR" INDICATES FEW OR NO CLOUDS BELOW 12,000 FEET WITH NO
SIGNIFICANT WEATHER AND/OR OBSTRUCTIONS TO VISIBILITY.

NYZ071-072-176-178-NJZ106-104-292000-
NEW YORK CITY METRO AREA


CITY           SKY/WX    TMP DP  RH WIND       PRES   REMARKS
CENTRAL PARK   CLOUDY    74  55  51 VRB6      29.93R
LAGUARDIA APRT CLOUDY    76  53  44 W12       29.89S
KENNEDY INTL   PTSUNNY   75  55  49 SW14      29.91R
NEWARK/LIBERTY PTSUNNY   78  55  44 W14G23    29.90S
BRNX BOT. GARD   N/A     73  54  49 W5        29.92R
TETERBORO      CLOUDY    76  56  49 W7        29.89R
$$

NYZ177-179-078>081-292000-
LONG ISLAND NEW YORK

CITY           SKY/WX    TMP DP  RH WIND       PRES   REMARKS
FARMINGDALE    CLOUDY    74  56  53 W10       29.90R
ISLIP          PTSUNNY   73  58  59 SW15G22   29.88R
SHIRLEY        CLOUDY    73  59  61 SW10G18   29.91R
WESTHAMPTON    MOSUNNY   74  59  59 SW16G23   29.91R
MONTAUK POINT    N/A     73  61  65 VRB6      29.91R
$$

NYZ052-065-067-292000-
HUDSON VALLEY

CITY           SKY/WX    TMP DP  RH WIND       PRES   REMARKS
WHITE PLAINS   CLOUDY    73  56  54 W9        29.90R
NEWBURGH       PTSUNNY   70  59  68 W14       29.91R
MONTGOMERY     CLOUDY    73  59  61 SW8       29.89S
POUGHKEEPSIE   CLOUDY    74  57  55 W10       29.87S
ALBANY         PTSUNNY   72  56  57 W10       29.86S
$$

NJZ001-105-106-008-010-013-015-019>022-104-292000-
NEW JERSEY

CITY           SKY/WX    TMP DP  RH WIND       PRES   REMARKS
NEWARK/LIBERTY PTSUNNY   78  55  44 W14G23    29.90S
TETERBORO      CLOUDY    76  56  49 W7        29.89R
CALDWELL       CLOUDY    74  55  51 W12       29.91S
MORRISTOWN     CLOUDY    75  59  57 W13G21    29.92R
SOMERVILLE     CLOUDY    73  57  57 VRB6      29.91R
SUSSEX         CLOUDY    71  58  63 VRB5      29.92R
ANDOVER          N/A     70  57  63 VRB6      29.93S
TRENTON        CLOUDY    75  55  49 W10G17    29.93R
MILLVILLE      SUNNY     79  57  46 W13G21    29.94F
ATLANTIC CITY  MOSUNNY   79  56  45 W14G21    29.93F
WRIGHTSTOWN    PTSUNNY   77  58  51 W13G18    29.90S
TOMS RIVER     PTSUNNY   77  54  44 W13G18    29.93S
BELMAR         PTSUNNY   75  55  50 W13       29.92S
$$

PAZ047>061-062-071-292000-
EASTERN PENNSYLVANIA

CITY           SKY/WX    TMP DP  RH WIND       PRES   REMARKS
PHILADELPHIA   MOSUNNY   78  53  41 NW14G22   29.94R
ALLENTOWN      CLOUDY    74  56  53 NW7G16    29.93S
SCRANTON       PTSUNNY   72  56  57 SW6       29.92S
$$

CTZ002-004>006-009-010-012-RIZ004-006-007-MAZ004-011-015-292000-
SOUTHERN NEW ENGLAND
 IN CT

CITY           SKY/WX    TMP DP  RH WIND       PRES   REMARKS
BRADLEY INTL   PTSUNNY   74  57  55 W12       29.85R
HARTFORD       CLOUDY    74  57  55 SW12      29.86S
DANBURY        PTSUNNY   73  55  53 W13G22    29.90S
WTRBRY/OXFORD  PTSUNNY   72  57  60 W6        29.91S
BRIDGEPORT     CLOUDY    73  60  63 SW13      29.88S
MERIDEN        CLOUDY    74  58  57 SW5       29.87R
NEW HAVEN      CLOUDY    70  59  68 SW9       29.88S
CHESTER        MOCLDY    70  59  68 SW7       29.89R
GROTON         SUNNY     72  58  61 SW16G24   29.87S
WILLIMANTIC    CLOUDY    71  59  65 W8        29.87R

 IN RI

CITY           SKY/WX    TMP DP  RH WIND       PRES   REMARKS
PROVIDENCE     PTSUNNY   74  60  61 SW9       29.86S
BLOCK ISLAND   CLOUDY    72  59  64 SW14      29.90R
WESTERLY       SUNNY     73  57  57 SW14G22   29.89R

 IN MA

CITY           SKY/WX    TMP DP  RH WIND       PRES   REMARKS
BOSTON         PTSUNNY   67  61  81 SE8       29.84S
WORCESTER      LGT RAIN  68  57  68 W7        29.88R
WESTFIELD      CLOUDY    74  56  53 W9        29.85S
PROVINCETOWN   PTSUNNY   73  14  10 SW9       29.86F
NANTUCKET      SUNNY     70  60  70 SW17      29.90R
$$

ANZ330-335-338-340-345-350-353-355-292000-
COASTAL MARINE OBSERVATIONS


STATION/POSITION TIME  SKY/WX   TEMP    WIND        PRES    VSBY  WAVE
                                AIR SEA DIR/SP/G                  HT/PER
                 (UTC)          (F)     (DEG/KT/KT) (MB)    (MI)  (FT/S)
NY HARB ENTRANCE 1850            69 69  130/  6/  8 1012.6          3/ 8
4S FIRE IS       1833               66                N/A           5/ 8
20S FIRE ISLAND  1850            67 66  210/ 12/ 14 1012.8          4/ 8
GREAT SOUTH BAY  1800            70 72  270/ 14/ 19   N/A
23SW MTP         1850            66 66  240/ 16/ 17 1012.2          6/ 8
HUDSON CANYON    NOT AVBL
KINGS POINT      1800            72 65  300/  8/ 10 1011.6
CENTRAL LI SOUND NOT AVBL
EASTERN LI SOUND NOT AVBL
ROBBINS REEF     1800            73     260/ 13/ 16 1011.3
$$


>>>>>>>>>>>>>>>>>>>>>>>>>>>> KEY <<<<<<<<<<<<<<<<<<<<<<<<<<<
>                                                          <
>     SKY/WX - SKY CONDITION/PRESENT WEATHER               <
>     TMP    - TEMPERATURE IN FAHRENHEIT                   <
>     DP     - DEWPOINT IN FAHRENHEIT                      <
>     RH     - RELATIVE HUMIDITY IN PERCENT                <
>     WIND   - DIRECTION AND SPEED IN MPH                  <
>     PRES   - MEAN SEA LEVEL PRESSURE IN INCHES OF HG     <
>     WCI    - WIND CHILL INDEX                            <
>     VSB    - VISIBILITY IN MILES                         <
>     HX     - HEAT INDEX                                  <
>     TC     - TEMPERATURE IN CELSIUS                      <
>     VRB    - VARIABLE WIND DIRECTION                     <
>                                                          <
>>>>>>>>>>>>>>>>>>>>>>>>>>>> KEY <<<<<<<<<<<<<<<<<<<<<<<<<<<




USA.gov is the U.S. government's official web portal to all federal, state and local government web resources and services.